Location: Novokuznetsk
(53.7500°N, 87.1000°E)
Time: 04:52:15
(UTC+06:00)

ISS - Pass Details

Date: 17 July 2018
Orbit: 402 x 408 km, 51.6° (Epoch: 16 July)

Event Time Altitude Azimuth Distance (km) Brightness Sun altitude
Rises 02:36:25 0° 271° (W) 2,330 -0.3 -9.3°
Reaches altitude 10° 02:38:32 10° 267° (W) 1,470 -1.3 -9.1°
Maximum altitude 02:41:45 54° 189° (S) 501 -3.7 -8.8°
Drops below altitude 10° 02:44:59 10° 111° (ESE) 1,469 -0.8 -8.6°
Sets 02:47:05 0° 107° (ESE) 2,330 0.3 -8.4°
